{"data":{"norad_id":69570,"epoch":"2026-09-20T04:11:55.468320Z","epoch_age_seconds":57136,"freshness":"FRESH","line1":"1 69570U 26136A   26263.17494755 -.00000337  00000+0  00000+0 0  9998","line2":"2 69570  63.4835 346.2963 6935962 172.0412 211.3901  1.92225658  1916","mean_motion":1.92225658,"eccentricity":0.6935962,"inclination_deg":63.4835,"raan_deg":346.2963,"arg_perigee_deg":172.0412,"mean_anomaly_deg":211.3901,"bstar":0,"rev_number":191,"period_min":749.11955822256,"perigee_km":1993.7190248942,"apogee_km":39895.909048737,"semimajor_km":27322.951036815,"source":"CELESTRAK","updated_at":"2026-09-20T09:00:24.986833Z"}}